Time,TemperatureF,DewpointF,PressureIn,WindDirection,WindDirectionDegrees,WindSpeedMPH,WindSpeedGustMPH,Humidity,HourlyPrecipIn,Conditions,Clouds,dailyrainin,SoftwareType,DateUTC
2013-02-08 00:00:00,28.8,20.9,29.87,ENE,73,7.2,7.2,72,0.00,,---,0.00,VWS V14.01,2013-02-08 05:00:00,
2013-02-08 00:01:00,28.8,20.9,29.87,ENE,69,5.4,7.2,72,0.00,,---,0.00,VWS V14.01,2013-02-08 05:01:00,
2013-02-08 00:06:00,28.6,21.0,29.87,ENE,60,5.4,6.3,73,0.00,,---,0.00,VWS V14.01,2013-02-08 05:06:00,
2013-02-08 00:11:00,28.4,21.2,29.84,ENE,76,5.4,6.3,74,0.00,,---,0.00,VWS V14.01,2013-02-08 05:11:00,
2013-02-08 00:16:00,28.4,21.5,29.84,NE,41,6.3,7.2,75,0.00,,---,0.00,VWS V14.01,2013-02-08 05:16:00,
2013-02-08 00:21:00,28.4,22.1,29.84,East,88,5.4,7.2,77,0.00,,---,0.00,VWS V14.01,2013-02-08 05:21:00,
2013-02-08 00:26:00,28.2,22.2,29.84,NE,40,0.0,10.7,78,0.00,,---,0.00,VWS V14.01,2013-02-08 05:26:00,
2013-02-08 00:31:00,28.2,22.2,29.84,NE,45,9.8,9.8,78,0.00,,---,0.00,VWS V14.01,2013-02-08 05:31:00,
2013-02-08 00:36:00,28.2,22.2,29.84,ENE,73,6.3,6.3,78,0.00,,---,0.00,VWS V14.01,2013-02-08 05:36:00,
2013-02-08 00:41:00,28.0,22.1,29.84,ENE,64,7.2,8.1,78,0.00,,---,0.00,VWS V14.01,2013-02-08 05:41:00,
2013-02-08 00:46:00,28.0,22.1,29.84,East,86,6.3,9.8,78,0.00,,---,0.00,VWS V14.01,2013-02-08 05:46:00,
2013-02-08 00:51:00,28.0,22.4,29.81,East,98,6.3,6.3,79,0.00,,---,0.00,VWS V14.01,2013-02-08 05:51:00,
2013-02-08 00:56:00,28.0,22.4,29.81,East,91,6.3,6.3,79,0.00,,---,0.00,VWS V14.01,2013-02-08 05:56:00,
2013-02-08 01:01:00,27.9,22.5,29.81,ESE,102,10.7,12.5,80,0.00,,---,0.00,VWS V14.01,2013-02-08 06:01:00,
2013-02-08 01:07:00,27.9,22.5,29.81,East,94,15.2,15.2,80,0.00,,---,0.00,VWS V14.01,2013-02-08 06:07:00,
2013-02-08 01:12:00,27.9,22.8,29.81,ENE,61,5.4,9.8,81,0.00,,---,0.00,VWS V14.01,2013-02-08 06:12:00,
2013-02-08 01:17:00,27.9,23.1,29.81,NE,54,7.2,7.2,82,0.00,,---,0.00,VWS V14.01,2013-02-08 06:17:00,
2013-02-08 01:22:00,27.7,22.9,29.81,ESE,115,8.1,8.1,82,0.00,,---,0.00,VWS V14.01,2013-02-08 06:22:00,
2013-02-08 01:27:00,27.7,23.2,29.81,ENE,72,8.1,8.1,83,0.00,,---,0.00,VWS V14.01,2013-02-08 06:27:00,
2013-02-08 01:32:00,27.7,23.2,29.81,ENE,77,7.2,7.2,83,0.00,,---,0.00,VWS V14.01,2013-02-08 06:32:00,
2013-02-08 01:37:00,27.7,23.2,29.78,ESE,120,7.2,8.1,83,0.00,,---,0.00,VWS V14.01,2013-02-08 06:37:00,
2013-02-08 01:42:00,27.7,23.5,29.78,ENE,59,9.8,9.8,84,0.00,,---,0.00,VWS V14.01,2013-02-08 06:42:00,
2013-02-08 01:47:00,27.7,23.5,29.78,ENE,77,5.4,8.1,84,0.00,,---,0.00,VWS V14.01,2013-02-08 06:47:00,
2013-02-08 01:52:00,27.7,23.5,29.78,ESE,116,9.8,9.8,84,0.00,,---,0.00,VWS V14.01,2013-02-08 06:52:00,
2013-02-08 01:57:00,27.7,23.5,29.78,ENE,71,6.3,7.2,84,0.00,,---,0.00,VWS V14.01,2013-02-08 06:57:00,
2013-02-08 02:02:00,27.7,23.8,29.78,ESE,110,6.3,6.3,85,0.00,,---,0.00,VWS V14.01,2013-02-08 07:02:00,
2013-02-08 02:07:00,27.7,23.8,29.78,ESE,112,0.0,8.1,85,0.00,,---,0.00,VWS V14.01,2013-02-08 07:07:00,
2013-02-08 02:12:00,27.7,23.8,29.78,ENE,77,5.4,8.1,85,0.00,,---,0.00,VWS V14.01,2013-02-08 07:12:00,
2013-02-08 02:17:00,27.9,24.2,29.78,ENE,63,4.5,5.4,86,0.00,,---,0.00,VWS V14.01,2013-02-08 07:17:00,
2013-02-08 02:22:00,27.7,24.0,29.78,East,90,4.5,6.3,86,0.00,,---,0.00,VWS V14.01,2013-02-08 07:22:00,
2013-02-08 02:27:00,27.9,24.2,29.78,SE,126,5.4,5.4,86,0.00,,---,0.00,VWS V14.01,2013-02-08 07:27:00,
2013-02-08 02:32:00,27.9,24.2,29.78,ENE,76,7.2,7.2,86,0.00,,---,0.00,VWS V14.01,2013-02-08 07:32:00,
2013-02-08 02:37:00,27.9,24.2,29.78,SE,124,5.4,6.3,86,0.00,,---,0.00,VWS V14.01,2013-02-08 07:37:00,
2013-02-08 02:42:00,27.9,24.5,29.78,East,80,0.0,5.4,87,0.00,,---,0.00,VWS V14.01,2013-02-08 07:42:00,
2013-02-08 02:47:00,27.9,24.5,29.78,East,91,4.5,5.4,87,0.00,,---,0.00,VWS V14.01,2013-02-08 07:47:00,
2013-02-08 02:52:00,27.9,24.5,29.78,East,99,5.4,5.4,87,0.00,,---,0.00,VWS V14.01,2013-02-08 07:52:00,
2013-02-08 02:57:00,27.9,24.5,29.78,ENE,69,4.5,4.5,87,0.00,,---,0.00,VWS V14.01,2013-02-08 07:57:00,
2013-02-08 03:02:00,27.9,24.5,29.78,ENE,65,5.4,6.3,87,0.00,,---,0.00,VWS V14.01,2013-02-08 08:02:00,
2013-02-08 03:07:00,27.9,24.5,29.78,East,91,4.5,5.4,87,0.00,,---,0.00,VWS V14.01,2013-02-08 08:07:00,
2013-02-08 03:12:00,27.9,24.5,29.78,NNW,345,5.4,5.4,87,0.00,,---,0.00,VWS V14.01,2013-02-08 08:12:00,
2013-02-08 03:17:00,27.9,24.5,29.78,ENE,57,0.0,7.2,87,0.00,,---,0.00,VWS V14.01,2013-02-08 08:17:00,
2013-02-08 03:22:00,27.9,24.5,29.78,East,83,0.0,0.0,87,0.00,,---,0.00,VWS V14.01,2013-02-08 08:22:00,
2013-02-08 03:28:00,27.9,24.5,29.78,NE,39,0.0,0.0,87,0.00,,---,0.00,VWS V14.01,2013-02-08 08:28:00,
2013-02-08 03:33:00,27.9,24.5,29.78,NE,56,0.0,5.4,87,0.00,,---,0.00,VWS V14.01,2013-02-08 08:33:00,
2013-02-08 03:38:00,27.9,24.5,29.78,North,360,0.0,0.0,87,0.00,,---,0.00,VWS V14.01,2013-02-08 08:38:00,
2013-02-08 03:43:00,27.9,24.5,29.78,East,80,0.0,0.0,87,0.00,,---,0.00,VWS V14.01,2013-02-08 08:43:00,
2013-02-08 03:48:00,28.0,24.7,29.78,NNE,21,0.0,0.0,87,0.00,,---,0.00,VWS V14.01,2013-02-08 08:48:00,
2013-02-08 03:53:00,28.0,24.7,29.75,North,10,6.3,6.3,87,0.00,,---,0.00,VWS V14.01,2013-02-08 08:53:00,
2013-02-08 03:58:00,28.0,24.7,29.75,North,354,7.2,7.2,87,0.00,,---,0.00,VWS V14.01,2013-02-08 08:58:00,
2013-02-08 04:03:00,28.0,24.7,29.75,North,6,0.0,0.0,87,0.00,,---,0.00,VWS V14.01,2013-02-08 09:03:00,
2013-02-08 04:08:00,28.0,24.7,29.75,North,360,6.3,6.3,87,0.00,,---,0.00,VWS V14.01,2013-02-08 09:08:00,
2013-02-08 04:13:00,28.0,24.7,29.75,NNE,28,7.2,7.2,87,0.00,,---,0.00,VWS V14.01,2013-02-08 09:13:00,
2013-02-08 04:18:00,28.0,24.7,29.75,NNE,27,5.4,7.2,87,0.00,,---,0.00,VWS V14.01,2013-02-08 09:18:00,
2013-02-08 04:23:00,28.0,24.7,29.75,NNW,344,7.2,8.1,87,0.00,,---,0.00,VWS V14.01,2013-02-08 09:23:00,
2013-02-08 04:28:00,28.2,25.1,29.75,North,351,7.2,10.7,88,0.00,,---,0.00,VWS V14.01,2013-02-08 09:28:00,
2013-02-08 04:33:00,28.2,25.1,29.75,NNW,339,7.2,11.6,88,0.00,,---,0.00,VWS V14.01,2013-02-08 09:33:00,
2013-02-08 04:38:00,28.2,25.1,29.75,NNW,343,13.4,13.4,88,0.00,,---,0.00,VWS V14.01,2013-02-08 09:38:00,
2013-02-08 04:43:00,28.0,25.0,29.75,NNW,339,7.2,9.8,88,0.00,,---,0.00,VWS V14.01,2013-02-08 09:43:00,
2013-02-08 04:49:00,28.0,25.0,29.75,NW,311,10.7,10.7,88,0.00,,---,0.00,VWS V14.01,2013-02-08 09:49:00,
2013-02-08 04:54:00,28.0,25.2,29.78,North,2,7.2,12.5,89,0.00,,---,0.00,VWS V14.01,2013-02-08 09:54:00,
2013-02-08 04:59:00,27.9,25.0,29.78,North,7,11.6,11.6,89,0.00,,---,0.00,VWS V14.01,2013-02-08 09:59:00,
2013-02-08 05:04:00,27.9,25.0,29.78,NNE,14,7.2,11.6,89,0.00,,---,0.00,VWS V14.01,2013-02-08 10:04:00,
2013-02-08 05:09:00,27.9,25.3,29.75,NNW,338,10.7,12.5,90,0.00,,---,0.00,VWS V14.01,2013-02-08 10:09:00,
2013-02-08 05:14:00,27.9,25.3,29.75,North,350,11.6,11.6,90,0.00,,---,0.00,VWS V14.01,2013-02-08 10:14:00,
2013-02-08 05:19:00,27.9,25.3,29.75,North,356,8.1,8.1,90,0.00,,---,0.00,VWS V14.01,2013-02-08 10:19:00,
2013-02-08 05:24:00,27.9,25.3,29.78,NW,326,10.7,10.7,90,0.00,,---,0.00,VWS V14.01,2013-02-08 10:24:00,
2013-02-08 05:29:00,27.9,25.3,29.78,NNW,343,11.6,12.5,90,0.00,,---,0.00,VWS V14.01,2013-02-08 10:29:00,
2013-02-08 05:34:00,27.9,25.3,29.78,NNW,342,16.1,16.1,90,0.00,,---,0.00,VWS V14.01,2013-02-08 10:34:00,
2013-02-08 05:39:00,27.9,25.3,29.78,NNW,332,8.1,11.6,90,0.00,,---,0.00,VWS V14.01,2013-02-08 10:39:00,
2013-02-08 05:44:00,27.9,25.6,29.78,North,355,7.2,12.5,91,0.00,,---,0.00,VWS V14.01,2013-02-08 10:44:00,
2013-02-08 05:49:00,27.9,25.6,29.78,North,358,11.6,11.6,91,0.00,,---,0.00,VWS V14.01,2013-02-08 10:49:00,
2013-02-08 05:54:00,28.0,25.8,29.78,NW,322,10.7,16.1,91,0.00,,---,0.00,VWS V14.01,2013-02-08 10:54:00,
2013-02-08 06:00:00,28.0,25.8,29.78,NW,317,10.7,10.7,91,0.00,,---,0.00,VWS V14.01,2013-02-08 11:00:00,
2013-02-08 06:05:00,28.0,26.0,29.78,NW,324,18.3,20.1,92,0.00,,---,0.00,VWS V14.01,2013-02-08 11:05:00,
2013-02-08 06:10:00,28.0,26.0,29.78,NNW,348,17.4,21.9,92,0.00,,---,0.00,VWS V14.01,2013-02-08 11:10:00,
2013-02-08 06:15:00,28.0,26.0,29.78,NNW,333,9.8,13.4,92,0.00,,---,0.00,VWS V14.01,2013-02-08 11:15:00,
2013-02-08 06:20:00,28.0,26.0,29.78,North,352,11.6,15.2,92,0.00,,---,0.00,VWS V14.01,2013-02-08 11:20:00,
2013-02-08 06:25:00,28.0,26.3,29.78,NNW,330,11.6,15.2,93,0.00,,---,0.00,VWS V14.01,2013-02-08 11:25:00,
2013-02-08 06:30:00,28.0,26.3,29.78,NNW,343,16.1,16.1,93,0.00,,---,0.00,VWS V14.01,2013-02-08 11:30:00,
2013-02-08 06:35:00,28.0,26.3,29.78,NNW,347,16.1,21.9,93,0.00,,---,0.00,VWS V14.01,2013-02-08 11:35:00,
2013-02-08 06:40:00,28.2,26.5,29.81,North,2,10.7,21.0,93,0.00,,---,0.00,VWS V14.01,2013-02-08 11:40:00,
2013-02-08 06:45:00,28.2,26.5,29.81,NW,322,11.6,15.2,93,0.00,,---,0.00,VWS V14.01,2013-02-08 11:45:00,
2013-02-08 06:51:00,28.4,26.9,29.81,NNW,341,10.7,17.4,94,0.00,,---,0.00,VWS V14.01,2013-02-08 11:51:00,
2013-02-08 06:56:00,28.4,26.9,29.81,NNW,332,12.5,17.4,94,0.00,,---,0.00,VWS V14.01,2013-02-08 11:56:00,
2013-02-08 07:01:00,28.4,26.9,29.81,North,360,16.1,16.1,94,0.00,,---,0.00,VWS V14.01,2013-02-08 12:01:00,
2013-02-08 07:06:00,28.6,27.1,29.81,NNW,336,12.5,15.2,94,0.00,,---,0.00,VWS V14.01,2013-02-08 12:06:00,
2013-02-08 07:11:00,28.6,27.1,29.81,North,358,29.1,29.1,94,0.00,,---,0.00,VWS V14.01,2013-02-08 12:11:00,
2013-02-08 07:16:00,28.4,26.9,29.81,NW,311,12.5,12.5,94,0.00,,---,0.00,VWS V14.01,2013-02-08 12:16:00,
2013-02-08 07:21:00,28.4,26.9,29.81,North,355,16.1,21.9,94,0.00,,---,0.00,VWS V14.01,2013-02-08 12:21:00,
2013-02-08 07:26:00,28.2,26.7,29.81,NNW,338,20.1,20.1,94,0.00,,---,0.00,VWS V14.01,2013-02-08 12:26:00,
2013-02-08 07:31:00,28.2,26.7,29.81,NNW,330,12.5,17.4,94,0.00,,---,0.00,VWS V14.01,2013-02-08 12:31:00,
2013-02-08 07:36:00,28.0,26.5,29.81,NNW,338,24.6,24.6,94,0.00,,---,0.00,VWS V14.01,2013-02-08 12:36:00,
2013-02-08 07:41:00,28.0,26.5,29.84,NNW,337,16.6,21.9,94,0.00,,---,0.00,VWS V14.01,2013-02-08 12:41:00,
2013-02-08 07:46:00,28.0,26.8,29.84,NNW,348,10.7,18.3,95,0.00,,---,0.00,VWS V14.01,2013-02-08 12:46:00,
2013-02-08 07:51:00,28.0,26.8,29.84,North,350,11.6,20.1,95,0.00,,---,0.00,VWS V14.01,2013-02-08 12:51:00,
2013-02-08 07:56:00,27.9,26.6,29.84,NNW,331,12.5,20.1,95,0.00,,---,0.00,VWS V14.01,2013-02-08 12:56:00,
2013-02-08 08:01:00,27.9,26.6,29.84,North,354,16.6,30.0,95,0.00,,---,0.00,VWS V14.01,2013-02-08 13:01:00,
2013-02-08 08:07:00,27.9,26.6,29.87,NNW,347,16.6,21.0,95,0.00,,---,0.00,VWS V14.01,2013-02-08 13:07:00,
2013-02-08 08:12:00,27.9,26.6,29.87,NNW,334,11.6,15.2,95,0.00,,---,0.00,VWS V14.01,2013-02-08 13:12:00,
2013-02-08 08:17:00,27.7,26.4,29.87,North,355,16.6,16.6,95,0.00,,---,0.00,VWS V14.01,2013-02-08 13:17:00,
2013-02-08 08:22:00,27.7,26.4,29.87,North,354,30.9,30.9,95,0.00,,---,0.00,VWS V14.01,2013-02-08 13:22:00,
2013-02-08 08:27:00,27.5,26.3,29.87,NNW,340,24.6,34.0,95,0.00,,---,0.00,VWS V14.01,2013-02-08 13:27:00,
2013-02-08 08:32:00,27.1,25.9,29.87,North,350,20.1,26.4,95,0.00,,---,0.00,VWS V14.01,2013-02-08 13:32:00,
2013-02-08 08:37:00,27.0,25.7,29.87,North,6,20.1,20.1,95,0.00,,---,0.00,VWS V14.01,2013-02-08 13:37:00,
2013-02-08 08:42:00,27.0,25.7,29.87,North,5,30.9,30.9,95,0.00,,---,0.00,VWS V14.01,2013-02-08 13:42:00,
2013-02-08 08:47:00,26.8,25.5,29.87,North,357,17.4,17.4,95,0.00,,---,0.00,VWS V14.01,2013-02-08 13:47:00,
2013-02-08 08:52:00,26.8,25.5,29.90,North,353,17.4,30.0,95,0.00,,---,0.00,VWS V14.01,2013-02-08 13:52:00,
2013-02-08 08:57:00,26.8,25.5,29.90,NNW,328,21.0,21.0,95,0.00,,---,0.00,VWS V14.01,2013-02-08 13:57:00,
2013-02-08 09:02:00,26.8,25.5,29.90,NNW,338,30.9,30.9,95,0.00,,---,0.00,VWS V14.01,2013-02-08 14:02:00,
2013-02-08 09:07:00,27.0,25.7,29.90,NNW,328,21.0,21.0,95,0.00,,---,0.00,VWS V14.01,2013-02-08 14:07:00,
2013-02-08 09:12:00,27.0,25.5,29.90,NNW,333,20.1,20.1,94,0.00,,---,0.00,VWS V14.01,2013-02-08 14:12:00,
2013-02-08 09:17:00,27.0,25.5,29.90,NNE,23,12.5,21.0,94,0.00,,---,0.00,VWS V14.01,2013-02-08 14:17:00,
2013-02-08 09:22:00,26.8,25.0,29.90,NNW,342,16.6,16.6,93,0.00,,---,0.00,VWS V14.01,2013-02-08 14:22:00,
2013-02-08 09:27:00,26.8,25.0,29.90,NW,313,29.1,29.1,93,0.00,,---,0.00,VWS V14.01,2013-02-08 14:27:00,
2013-02-08 09:32:00,26.8,24.8,29.90,NNE,14,20.1,20.1,92,0.00,,---,0.00,VWS V14.01,2013-02-08 14:32:00,
2013-02-08 09:37:00,27.0,25.0,29.90,NNW,342,12.5,20.1,92,0.00,,---,0.00,VWS V14.01,2013-02-08 14:37:00,
2013-02-08 09:42:00,27.0,24.7,29.90,North,354,26.4,34.0,91,0.00,,---,0.00,VWS V14.01,2013-02-08 14:42:00,
2013-02-08 09:47:00,27.1,24.6,29.90,NNW,345,30.0,34.0,90,0.00,,---,0.00,VWS V14.01,2013-02-08 14:47:00,
2013-02-08 09:52:00,27.3,24.5,29.93,North,7,30.0,30.0,89,0.00,,---,0.00,VWS V14.01,2013-02-08 14:52:00,
2013-02-08 09:57:00,27.1,23.8,29.93,NNW,338,24.6,36.7,87,0.00,,---,0.00,VWS V14.01,2013-02-08 14:57:00,
2013-02-08 10:02:00,27.1,23.2,29.93,North,354,30.0,30.0,85,0.00,,---,0.00,VWS V14.01,2013-02-08 15:02:00,
2013-02-08 10:08:00,27.0,22.8,29.93,North,357,17.4,30.0,84,0.00,,---,0.00,VWS V14.01,2013-02-08 15:08:00,
2013-02-08 10:13:00,27.1,23.0,29.93,NNW,334,21.9,26.4,84,0.00,,---,0.00,VWS V14.01,2013-02-08 15:13:00,
2013-02-08 10:18:00,27.3,23.1,29.93,North,6,21.9,44.7,84,0.00,,---,0.00,VWS V14.01,2013-02-08 15:18:00,
2013-02-08 10:23:00,27.5,22.7,29.93,North,359,21.0,34.9,82,0.00,,---,0.00,VWS V14.01,2013-02-08 15:23:00,
2013-02-08 10:28:00,27.7,22.6,29.93,NNW,335,30.9,30.9,81,0.00,,---,0.00,VWS V14.01,2013-02-08 15:28:00,
2013-02-08 10:33:00,27.5,22.5,29.93,North,3,25.5,30.9,81,0.00,,---,0.00,VWS V14.01,2013-02-08 15:33:00,
2013-02-08 10:38:00,27.3,22.0,29.96,North,351,19.2,44.7,80,0.00,,---,0.00,VWS V14.01,2013-02-08 15:38:00,
2013-02-08 10:43:00,27.1,21.5,29.96,NNW,343,16.6,21.9,79,0.00,,---,0.00,VWS V14.01,2013-02-08 15:43:00,
2013-02-08 10:48:00,27.1,21.5,29.96,NNE,14,17.4,17.4,79,0.00,,---,0.00,VWS V14.01,2013-02-08 15:48:00,
2013-02-08 10:53:00,27.1,21.5,29.96,NW,304,30.0,30.0,79,0.00,,---,0.00,VWS V14.01,2013-02-08 15:53:00,
2013-02-08 10:58:00,27.0,21.0,29.96,NNW,327,17.4,21.9,78,0.00,,---,0.00,VWS V14.01,2013-02-08 15:58:00,
2013-02-08 11:03:00,27.0,20.7,29.96,NW,308,21.9,30.9,77,0.00,,---,0.00,VWS V14.01,2013-02-08 16:03:00,
2013-02-08 11:08:00,27.1,20.9,29.99,North,352,21.0,24.6,77,0.00,,---,0.00,VWS V14.01,2013-02-08 16:08:00,
2013-02-08 11:13:00,27.3,21.1,29.99,NNW,336,24.6,24.6,77,0.00,,---,0.00,VWS V14.01,2013-02-08 16:13:00,
2013-02-08 11:18:00,27.1,20.3,29.99,North,6,30.9,30.9,75,0.00,,---,0.00,VWS V14.01,2013-02-08 16:18:00,
2013-02-08 11:23:00,26.8,19.9,29.99,North,352,29.1,52.3,75,0.00,,---,0.00,VWS V14.01,2013-02-08 16:23:00,
2013-02-08 11:28:00,26.2,19.7,29.99,NW,314,26.4,34.9,76,0.00,,---,0.00,VWS V14.01,2013-02-08 16:28:00,
2013-02-08 11:33:00,26.2,20.3,29.99,NW,326,34.9,34.9,78,0.00,,---,0.00,VWS V14.01,2013-02-08 16:33:00,
2013-02-08 11:38:00,25.9,19.7,29.99,NNW,346,25.5,26.4,77,0.00,,---,0.00,VWS V14.01,2013-02-08 16:38:00,
2013-02-08 11:43:00,25.7,19.2,29.99,NNW,337,20.1,25.5,76,0.00,,---,0.00,VWS V14.01,2013-02-08 16:43:00,
2013-02-08 11:48:00,25.7,19.2,29.99,NNW,336,16.6,25.5,76,0.00,,---,0.00,VWS V14.01,2013-02-08 16:48:00,
2013-02-08 11:53:00,25.7,19.2,30.02,North,357,23.7,28.2,76,0.00,,---,0.00,VWS V14.01,2013-02-08 16:53:00,
2013-02-08 11:58:00,25.5,18.7,30.02,NW,322,16.1,26.4,75,0.00,,---,0.00,VWS V14.01,2013-02-08 16:58:00,
2013-02-08 12:03:00,25.5,18.7,30.02,NNW,335,16.1,30.9,75,0.00,,---,0.00,VWS V14.01,2013-02-08 17:03:00,
2013-02-08 12:08:00,25.7,18.9,30.02,North,7,13.4,13.4,75,0.00,,---,0.00,VWS V14.01,2013-02-08 17:08:00,
2013-02-08 12:13:00,25.5,18.4,30.02,North,353,12.5,30.0,74,0.00,,---,0.00,VWS V14.01,2013-02-08 17:13:00,
2013-02-08 12:18:00,25.5,18.1,30.02,WNW,289,24.6,34.9,73,0.00,,---,0.00,VWS V14.01,2013-02-08 17:18:00,
2013-02-08 12:24:00,25.3,18.2,30.02,NNW,343,16.1,26.4,74,0.00,,---,0.00,VWS V14.01,2013-02-08 17:24:00,
2013-02-08 12:29:00,25.3,17.9,30.02,NNW,332,30.0,34.0,73,0.00,,---,0.00,VWS V14.01,2013-02-08 17:29:00,
2013-02-08 12:33:00,25.2,17.7,30.02,NNW,348,24.6,28.2,73,0.00,,---,0.00,VWS V14.01,2013-02-08 17:33:00,
2013-02-08 12:39:00,25.0,17.6,30.05,NNW,336,29.1,30.9,73,0.00,,---,0.00,VWS V14.01,2013-02-08 17:39:00,
2013-02-08 12:44:00,25.0,17.6,30.05,NW,309,24.6,24.6,73,0.00,,---,0.00,VWS V14.01,2013-02-08 17:44:00,
2013-02-08 12:49:00,24.8,17.7,30.05,NW,312,16.6,17.4,74,0.00,,---,0.00,VWS V14.01,2013-02-08 17:49:00,
2013-02-08 12:54:00,24.6,17.5,30.05,NNW,347,16.6,23.7,74,0.00,,---,0.00,VWS V14.01,2013-02-08 17:54:00,
2013-02-08 12:59:00,24.4,17.4,30.05,NNW,341,26.4,27.3,74,0.00,,---,0.00,VWS V14.01,2013-02-08 17:59:00,
2013-02-08 13:04:00,24.4,17.7,30.05,North,358,36.7,36.7,75,0.00,,---,0.00,VWS V14.01,2013-02-08 18:04:00,
2013-02-08 13:09:00,24.4,17.7,30.05,NW,308,12.5,21.9,75,0.00,,---,0.00,VWS V14.01,2013-02-08 18:09:00,
2013-02-08 13:14:00,24.6,17.8,30.05,NNW,340,23.7,33.6,75,0.00,,---,0.00,VWS V14.01,2013-02-08 18:14:00,
2013-02-08 13:19:00,24.8,18.0,30.05,WNW,291,10.7,10.7,75,0.00,,---,0.00,VWS V14.01,2013-02-08 18:19:00,
2013-02-08 13:24:00,25.2,18.4,30.05,NNW,331,25.5,31.8,75,0.00,,---,0.00,VWS V14.01,2013-02-08 18:24:00,
2013-02-08 13:29:00,25.2,18.0,30.05,North,355,20.1,34.9,74,0.00,,---,0.00,VWS V14.01,2013-02-08 18:29:00,
2013-02-08 13:34:00,25.2,17.7,30.05,NW,311,11.6,26.4,73,0.00,,---,0.00,VWS V14.01,2013-02-08 18:34:00,
2013-02-08 13:39:00,25.2,17.7,30.08,NNW,348,16.6,26.4,73,0.00,,---,0.00,VWS V14.01,2013-02-08 18:39:00,
2013-02-08 13:44:00,25.0,17.6,30.08,NW,308,34.0,47.4,73,0.00,,---,0.00,VWS V14.01,2013-02-08 18:44:00,
2013-02-08 13:49:00,25.0,17.6,30.08,NW,320,16.1,21.0,73,0.00,,---,0.00,VWS V14.01,2013-02-08 18:49:00,
2013-02-08 13:54:00,25.0,17.9,30.08,NNW,348,18.3,31.8,74,0.00,,---,0.00,VWS V14.01,2013-02-08 18:54:00,
2013-02-08 13:59:00,25.0,17.9,30.08,NW,324,23.7,31.8,74,0.00,,---,0.00,VWS V14.01,2013-02-08 18:59:00,
2013-02-08 14:04:00,25.0,17.9,30.08,WNW,303,24.6,24.6,74,0.00,,---,0.00,VWS V14.01,2013-02-08 19:04:00,
2013-02-08 14:10:00,25.0,17.9,30.08,NW,324,20.1,30.0,74,0.00,,---,0.00,VWS V14.01,2013-02-08 19:10:00,
2013-02-08 14:15:00,25.0,17.9,30.08,NW,324,30.0,30.0,74,0.00,,---,0.00,VWS V14.01,2013-02-08 19:15:00,
2013-02-08 14:20:00,25.0,17.9,30.08,NW,324,16.6,20.1,74,0.00,,---,0.00,VWS V14.01,2013-02-08 19:20:00,
2013-02-08 14:25:00,25.0,17.9,30.08,North,352,20.1,20.1,74,0.00,,---,0.00,VWS V14.01,2013-02-08 19:25:00,
2013-02-08 14:30:00,25.0,18.2,30.08,NNE,18,24.6,26.4,75,0.00,,---,0.00,VWS V14.01,2013-02-08 19:30:00,
2013-02-08 14:35:00,25.0,18.2,30.08,NNW,348,17.4,25.5,75,0.00,,---,0.00,VWS V14.01,2013-02-08 19:35:00,
2013-02-08 14:40:00,25.2,18.4,30.08,North,356,26.4,26.4,75,0.00,,---,0.00,VWS V14.01,2013-02-08 19:40:00,
2013-02-08 14:45:00,25.2,18.0,30.08,NNE,26,17.4,20.1,74,0.00,,---,0.00,VWS V14.01,2013-02-08 19:45:00,
2013-02-08 14:50:00,25.2,18.4,30.08,North,9,16.6,20.1,75,0.00,,---,0.00,VWS V14.01,2013-02-08 19:50:00,
2013-02-08 14:55:00,25.2,18.4,30.08,NW,308,16.6,29.1,75,0.00,,---,0.00,VWS V14.01,2013-02-08 19:55:00,
2013-02-08 15:00:00,25.0,18.2,30.08,NNW,340,15.2,21.9,75,0.00,,---,0.00,VWS V14.01,2013-02-08 20:00:00,
2013-02-08 15:05:00,25.2,18.4,30.08,North,3,27.3,27.3,75,0.00,,---,0.00,VWS V14.01,2013-02-08 20:05:00,
2013-02-08 15:10:00,25.2,18.4,30.08,NNW,328,17.4,33.6,75,0.00,,---,0.00,VWS V14.01,2013-02-08 20:10:00,
2013-02-08 15:15:00,25.2,18.4,30.08,North,5,30.9,30.9,75,0.00,,---,0.00,VWS V14.01,2013-02-08 20:15:00,
2013-02-08 15:20:00,25.3,18.2,30.08,NNW,336,14.3,14.3,74,0.00,,---,0.00,VWS V14.01,2013-02-08 20:20:00,
2013-02-08 15:25:00,25.2,18.4,30.11,North,1,21.9,26.4,75,0.00,,---,0.00,VWS V14.01,2013-02-08 20:25:00,
2013-02-08 15:31:00,25.2,18.0,30.11,NNW,341,17.4,21.0,74,0.00,,---,0.00,VWS V14.01,2013-02-08 20:31:00,
2013-02-08 15:36:00,25.2,18.0,30.11,NNW,341,21.9,21.9,74,0.00,,---,0.00,VWS V14.01,2013-02-08 20:36:00,
2013-02-08 15:41:00,25.0,17.6,30.11,NW,316,21.9,25.5,73,0.00,,---,0.00,VWS V14.01,2013-02-08 20:41:00,
2013-02-08 15:46:00,25.0,17.6,30.11,NNW,336,16.6,20.1,73,0.00,,---,0.00,VWS V14.01,2013-02-08 20:46:00,
2013-02-08 15:51:00,25.2,17.7,30.11,NNW,332,26.4,26.4,73,0.00,,---,0.00,VWS V14.01,2013-02-08 20:51:00,
2013-02-08 15:56:00,25.2,17.7,30.11,NNW,337,17.4,20.1,73,0.00,,---,0.00,VWS V14.01,2013-02-08 20:56:00,
2013-02-08 16:01:00,25.2,17.7,30.11,NW,317,16.1,16.1,73,0.00,,---,0.00,VWS V14.01,2013-02-08 21:01:00,
2013-02-08 16:06:00,25.2,17.7,30.11,North,353,16.6,16.6,73,0.00,,---,0.00,VWS V14.01,2013-02-08 21:06:00,
2013-02-08 16:11:00,25.3,17.9,30.14,North,352,17.4,17.4,73,0.00,,---,0.00,VWS V14.01,2013-02-08 21:11:00,
2013-02-08 16:16:00,25.3,17.6,30.14,North,355,23.7,23.7,72,0.00,,---,0.00,VWS V14.01,2013-02-08 21:16:00,
2013-02-08 16:21:00,25.2,17.4,30.14,North,5,20.1,20.1,72,0.00,,---,0.00,VWS V14.01,2013-02-08 21:21:00,
2013-02-08 16:26:00,25.0,17.2,30.14,NNW,343,21.9,21.9,72,0.00,,---,0.00,VWS V14.01,2013-02-08 21:26:00,
2013-02-08 16:31:00,25.0,16.9,30.14,NNW,343,20.1,20.1,71,0.00,,---,0.00,VWS V14.01,2013-02-08 21:31:00,
2013-02-08 16:36:00,24.8,17.1,30.14,NNW,334,26.4,26.4,72,0.00,,---,0.00,VWS V14.01,2013-02-08 21:36:00,
2013-02-08 16:41:00,24.8,16.8,30.14,North,358,21.0,30.0,71,0.00,,---,0.00,VWS V14.01,2013-02-08 21:41:00,
2013-02-08 16:46:00,24.8,16.8,30.14,North,360,18.3,30.0,71,0.00,,---,0.00,VWS V14.01,2013-02-08 21:46:00,
2013-02-08 16:51:00,24.8,16.4,30.14,North,351,21.0,21.0,70,0.00,,---,0.00,VWS V14.01,2013-02-08 21:51:00,
2013-02-08 16:56:00,24.8,16.8,30.14,North,358,15.2,20.1,71,0.00,,---,0.00,VWS V14.01,2013-02-08 21:56:00,
2013-02-08 17:01:00,24.8,16.8,30.14,North,353,15.2,17.4,71,0.00,,---,0.00,VWS V14.01,2013-02-08 22:01:00,
2013-02-08 17:06:00,24.8,16.4,30.16,NNW,348,21.0,21.0,70,0.00,,---,0.00,VWS V14.01,2013-02-08 22:06:00,
2013-02-08 17:11:00,24.8,16.4,30.16,NNW,329,16.6,21.0,70,0.00,,---,0.00,VWS V14.01,2013-02-08 22:11:00,
2013-02-08 17:17:00,24.8,16.4,30.16,NNW,336,10.7,25.5,70,0.00,,---,0.00,VWS V14.01,2013-02-08 22:17:00,
2013-02-08 17:22:00,24.8,16.1,30.16,NW,314,11.6,17.4,69,0.00,,---,0.00,VWS V14.01,2013-02-08 22:22:00,
2013-02-08 17:27:00,24.8,16.1,30.16,NNW,333,21.0,21.0,69,0.00,,---,0.00,VWS V14.01,2013-02-08 22:27:00,
2013-02-08 17:32:00,24.8,15.8,30.16,NW,326,10.7,12.5,68,0.00,,---,0.00,VWS V14.01,2013-02-08 22:32:00,
2013-02-08 17:37:00,24.8,15.8,30.16,NW,315,21.9,21.9,68,0.00,,---,0.00,VWS V14.01,2013-02-08 22:37:00,
2013-02-08 17:42:00,24.8,15.8,30.16,NNW,343,24.6,26.4,68,0.00,,---,0.00,VWS V14.01,2013-02-08 22:42:00,
2013-02-08 17:47:00,24.8,15.4,30.16,North,349,18.3,18.3,67,0.00,,---,0.00,VWS V14.01,2013-02-08 22:47:00,
2013-02-08 17:52:00,24.8,15.4,30.19,NNW,343,16.1,17.4,67,0.00,,---,0.00,VWS V14.01,2013-02-08 22:52:00,
2013-02-08 17:57:00,24.8,15.4,30.19,North,360,17.4,17.4,67,0.00,,---,0.00,VWS V14.01,2013-02-08 22:57:00,
2013-02-08 18:02:00,24.8,15.4,30.19,North,358,17.4,31.8,67,0.00,,---,0.00,VWS V14.01,2013-02-08 23:02:00,
2013-02-08 18:07:00,24.6,14.9,30.19,NNW,343,25.5,28.2,66,0.00,,---,0.00,VWS V14.01,2013-02-08 23:07:00,
2013-02-08 18:12:00,24.6,14.6,30.19,WNW,301,25.5,25.5,65,0.00,,---,0.00,VWS V14.01,2013-02-08 23:12:00,
2013-02-08 18:17:00,24.4,14.4,30.19,NNW,348,16.6,21.0,65,0.00,,---,0.00,VWS V14.01,2013-02-08 23:17:00,
2013-02-08 18:22:00,24.4,14.4,30.19,North,2,16.6,16.6,65,0.00,,---,0.00,VWS V14.01,2013-02-08 23:22:00,
2013-02-08 18:27:00,24.3,14.2,30.19,North,354,31.8,31.8,65,0.00,,---,0.00,VWS V14.01,2013-02-08 23:27:00,
2013-02-08 18:32:00,24.3,13.9,30.19,North,359,16.6,21.9,64,0.00,,---,0.00,VWS V14.01,2013-02-08 23:32:00,
2013-02-08 18:37:00,24.3,13.9,30.19,NW,316,16.1,21.0,64,0.00,,---,0.00,VWS V14.01,2013-02-08 23:37:00,
2013-02-08 18:42:00,24.3,13.9,30.19,North,4,21.9,21.9,64,0.00,,---,0.00,VWS V14.01,2013-02-08 23:42:00,
2013-02-08 18:47:00,24.1,13.7,30.19,NNW,330,21.9,21.9,64,0.00,,---,0.00,VWS V14.01,2013-02-08 23:47:00,
2013-02-08 18:53:00,24.1,13.3,30.22,NW,324,16.1,17.4,63,0.00,,---,0.00,VWS V14.01,2013-02-08 23:53:00,
2013-02-08 18:58:00,24.1,13.7,30.22,NNW,339,8.1,17.4,64,0.00,,---,0.00,VWS V14.01,2013-02-08 23:58:00,
2013-02-08 19:03:00,23.9,13.5,30.22,North,355,27.3,27.3,64,0.00,,---,0.00,VWS V14.01,2013-02-09 00:03:00,
2013-02-08 19:08:00,23.9,13.1,30.22,North,357,21.0,21.0,63,0.00,,---,0.00,VWS V14.01,2013-02-09 00:08:00,
2013-02-08 19:13:00,23.9,13.5,30.22,NNW,337,21.9,24.6,64,0.00,,---,0.00,VWS V14.01,2013-02-09 00:13:00,
2013-02-08 19:18:00,23.9,13.5,30.22,North,5,24.6,24.6,64,0.00,,---,0.00,VWS V14.01,2013-02-09 00:18:00,
2013-02-08 19:23:00,23.9,13.5,30.22,NNW,345,17.4,17.4,64,0.00,,---,0.00,VWS V14.01,2013-02-09 00:23:00,
2013-02-08 19:28:00,23.9,13.5,30.22,NNW,336,20.1,20.1,64,0.00,,---,0.00,VWS V14.01,2013-02-09 00:28:00,
2013-02-08 19:33:00,23.7,13.3,30.22,North,1,12.5,16.6,64,0.00,,---,0.00,VWS V14.01,2013-02-09 00:33:00,
2013-02-08 19:38:00,23.7,13.3,30.22,NNE,14,8.1,17.4,64,0.00,,---,0.00,VWS V14.01,2013-02-09 00:38:00,
2013-02-08 19:43:00,23.5,13.2,30.22,North,2,11.6,24.6,64,0.00,,---,0.00,VWS V14.01,2013-02-09 00:43:00,
2013-02-08 19:48:00,23.5,13.2,30.22,North,2,8.1,16.6,64,0.00,,---,0.00,VWS V14.01,2013-02-09 00:48:00,
2013-02-08 19:53:00,23.4,13.0,30.22,North,350,12.5,16.1,64,0.00,,---,0.00,VWS V14.01,2013-02-09 00:53:00,
2013-02-08 19:58:00,23.0,13.0,30.22,NNE,24,12.5,16.1,65,0.00,,---,0.00,VWS V14.01,2013-02-09 00:58:00,
2013-02-08 20:03:00,22.8,12.8,30.22,North,7,6.3,12.5,65,0.00,,---,0.00,VWS V14.01,2013-02-09 01:03:00,
2013-02-08 20:08:00,22.6,12.7,30.22,North,351,16.1,16.6,65,0.00,,---,0.00,VWS V14.01,2013-02-09 01:08:00,
2013-02-08 20:13:00,22.5,12.5,30.22,North,350,7.2,7.2,65,0.00,,---,0.00,VWS V14.01,2013-02-09 01:13:00,
2013-02-08 20:18:00,22.3,12.3,30.22,North,6,5.4,9.8,65,0.00,,---,0.00,VWS V14.01,2013-02-09 01:18:00,
2013-02-08 20:23:00,22.1,12.1,30.25,NNW,341,11.6,15.2,65,0.00,,---,0.00,VWS V14.01,2013-02-09 01:23:00,
2013-02-08 20:28:00,21.9,12.0,30.25,NNW,337,8.1,8.1,65,0.00,,---,0.00,VWS V14.01,2013-02-09 01:28:00,
2013-02-08 20:33:00,21.9,12.3,30.25,North,352,5.4,7.2,66,0.00,,---,0.00,VWS V14.01,2013-02-09 01:33:00,
2013-02-08 20:38:00,21.7,12.1,30.25,NNW,341,8.1,8.1,66,0.00,,---,0.00,VWS V14.01,2013-02-09 01:38:00,
2013-02-08 20:43:00,21.6,12.0,30.25,NW,316,5.4,5.4,66,0.00,,---,0.00,VWS V14.01,2013-02-09 01:43:00,
2013-02-08 20:48:00,21.4,12.1,30.25,NW,318,6.3,8.1,67,0.00,,---,0.00,VWS V14.01,2013-02-09 01:48:00,
2013-02-08 20:54:00,21.2,12.0,30.25,North,349,6.3,6.3,67,0.00,,---,0.00,VWS V14.01,2013-02-09 01:54:00,
2013-02-08 20:59:00,20.8,11.6,30.25,NNW,332,8.1,8.1,67,0.00,,---,0.00,VWS V14.01,2013-02-09 01:59:00,
2013-02-08 21:04:00,20.7,11.4,30.25,NNW,347,6.3,7.2,67,0.00,,---,0.00,VWS V14.01,2013-02-09 02:04:00,
2013-02-08 21:09:00,20.5,11.3,30.25,NNW,348,4.5,6.3,67,0.00,,---,0.00,VWS V14.01,2013-02-09 02:09:00,
2013-02-08 21:14:00,20.3,11.1,30.25,NNW,335,7.2,7.2,67,0.00,,---,0.00,VWS V14.01,2013-02-09 02:14:00,
2013-02-08 21:19:00,19.9,10.8,30.25,North,355,5.4,6.3,67,0.00,,---,0.00,VWS V14.01,2013-02-09 02:19:00,
2013-02-08 21:24:00,19.6,10.4,30.25,NNW,333,6.3,6.3,67,0.00,,---,0.00,VWS V14.01,2013-02-09 02:24:00,
2013-02-08 21:29:00,19.4,10.6,30.25,NNW,331,5.4,5.4,68,0.00,,---,0.00,VWS V14.01,2013-02-09 02:29:00,
2013-02-08 21:34:00,19.2,10.4,30.25,NNW,333,8.1,8.1,68,0.00,,---,0.00,VWS V14.01,2013-02-09 02:34:00,
2013-02-08 21:39:00,18.9,10.4,30.28,NW,325,7.2,8.1,69,0.00,,---,0.00,VWS V14.01,2013-02-09 02:39:00,
2013-02-08 21:44:00,18.9,10.7,30.28,NW,322,8.1,8.1,70,0.00,,---,0.00,VWS V14.01,2013-02-09 02:44:00,
2013-02-08 21:49:00,19.0,11.2,30.28,NNW,334,10.7,10.7,71,0.00,,---,0.00,VWS V14.01,2013-02-09 02:49:00,
2013-02-08 21:54:00,19.2,12.0,30.28,NNW,327,9.8,10.7,73,0.00,,---,0.00,VWS V14.01,2013-02-09 02:54:00,
2013-02-08 21:59:00,19.4,12.5,30.28,NNW,337,9.8,11.6,74,0.00,,---,0.00,VWS V14.01,2013-02-09 02:59:00,
2013-02-08 22:04:00,19.6,12.6,30.28,North,350,10.7,11.6,74,0.00,,---,0.00,VWS V14.01,2013-02-09 03:04:00,
2013-02-08 22:10:00,19.6,12.6,30.28,North,352,16.1,16.1,74,0.00,,---,0.00,VWS V14.01,2013-02-09 03:10:00,
2013-02-08 22:15:00,19.6,12.6,30.28,North,351,10.7,10.7,74,0.00,,---,0.00,VWS V14.01,2013-02-09 03:15:00,
2013-02-08 22:20:00,19.8,13.1,30.28,NNW,347,8.1,8.1,75,0.00,,---,0.00,VWS V14.01,2013-02-09 03:20:00,
2013-02-08 22:25:00,19.9,13.3,30.28,North,351,11.6,17.4,75,0.00,,---,0.00,VWS V14.01,2013-02-09 03:25:00,
2013-02-08 22:30:00,19.9,13.0,30.28,NW,310,7.2,7.2,74,0.00,,---,0.00,VWS V14.01,2013-02-09 03:30:00,
2013-02-08 22:35:00,19.8,12.8,30.28,NW,322,8.1,8.1,74,0.00,,---,0.00,VWS V14.01,2013-02-09 03:35:00,
2013-02-08 22:40:00,19.8,12.8,30.28,NW,323,7.2,10.7,74,0.00,,---,0.00,VWS V14.01,2013-02-09 03:40:00,
2013-02-08 22:45:00,19.4,12.5,30.28,NW,315,6.3,9.8,74,0.00,,---,0.00,VWS V14.01,2013-02-09 03:45:00,
2013-02-08 22:50:00,19.2,12.0,30.28,NW,316,5.4,5.4,73,0.00,,---,0.00,VWS V14.01,2013-02-09 03:50:00,
2013-02-08 22:55:00,19.0,11.8,30.28,NW,316,7.2,7.2,73,0.00,,---,0.00,VWS V14.01,2013-02-09 03:55:00,
2013-02-08 23:00:00,18.7,11.5,30.28,NW,326,8.1,10.7,73,0.00,,---,0.00,VWS V14.01,2013-02-09 04:00:00,
2013-02-08 23:05:00,18.5,11.3,30.28,NNW,331,7.2,7.2,73,0.00,,---,0.00,VWS V14.01,2013-02-09 04:05:00,
2013-02-08 23:10:00,18.3,11.1,30.28,NW,306,10.7,11.6,73,0.00,,---,0.00,VWS V14.01,2013-02-09 04:10:00,
2013-02-08 23:15:00,18.1,11.0,30.28,NW,317,8.1,8.1,73,0.00,,---,0.00,VWS V14.01,2013-02-09 04:15:00,
2013-02-08 23:20:00,17.8,10.6,30.28,NNW,333,7.2,10.7,73,0.00,,---,0.00,VWS V14.01,2013-02-09 04:20:00,
2013-02-08 23:25:00,17.8,10.6,30.28,NW,325,11.6,11.6,73,0.00,,---,0.00,VWS V14.01,2013-02-09 04:25:00,
2013-02-08 23:31:00,17.6,10.7,30.28,NW,316,8.1,11.6,74,0.00,,---,0.00,VWS V14.01,2013-02-09 04:31:00,
2013-02-08 23:36:00,17.6,10.7,30.28,NW,320,8.1,8.1,74,0.00,,---,0.00,VWS V14.01,2013-02-09 04:36:00,
2013-02-08 23:41:00,17.6,11.0,30.31,NW,324,7.2,8.1,75,0.00,,---,0.00,VWS V14.01,2013-02-09 04:41:00,
2013-02-08 23:46:00,17.6,11.3,30.31,NW,322,9.8,9.8,76,0.00,,---,0.00,VWS V14.01,2013-02-09 04:46:00,
2013-02-08 23:51:00,17.6,11.3,30.31,NNW,342,10.7,10.7,76,0.00,,---,0.00,VWS V14.01,2013-02-09 04:51:00,
2013-02-08 23:56:00,17.4,11.5,30.31,NW,323,7.2,11.6,77,0.00,,---,0.00,VWS V14.01,2013-02-09 04:56:00,